Regional Weather Roundup
Issued by NWS

Home | Current Version | Previous Version | Graphics & Text | Print | Product List | Glossary On
Versions: 1 2 3 4 5 6 7 8 9 10 11 12 13 14 15 16 17 18 19 20 21 22 23 24 25 26 27 28 29 30 31 32 33 34 35 36 37 38 39 40 41 42 43 44 45 46 47 48 49 50
310
ASUS43 KTOP 261408
RWRKS

WEATHER ROUNDUP FOR KANSAS
NATIONAL WEATHER SERVICE GOODLAND KS
900 AM CDT TUE SEP 26 2017

NOTE:  "FAIR" INDICATES FEW OR NO CLOUDS BELOW 12,000 FEET WITH NO
SIGNIFICANT WEATHER AND/OR OBSTRUCTIONS TO VISIBILITY.

KSZ001>006-013>018-027>032-041>047-261500-
NORTHWEST KANSAS

CITY           SKY/WX    TMP DP  RH WIND       PRES   REMARKS
GOODLAND       CLOUDY    46  45  96 N5        30.18S
HAYS           CLOUDY    52  49  89 N12       30.15R
HILL CITY      CLOUDY    50  48  93 N13       30.18R
RUSSELL        CLOUDY    52  49  89 N14       30.13R
$$

KSZ061>065-074>080-084>089-261500-
SOUTHWEST KANSAS

CITY           SKY/WX    TMP DP  RH WIND       PRES   REMARKS
DODGE CITY     CLOUDY    50  49  96 N12       30.14S
ELKHART          N/A     48  50 100 N5          N/A
GARDEN CITY    CLOUDY    49  47  93 N13       30.16R
GREAT BEND     CLOUDY    52  49  89 N15       30.14R
LIBERAL        CLOUDY    51  49  92 N14       30.16R
PRATT          CLOUDY    51  50  94 N15       30.12R
$$

KSZ066>073-081>083-090>101-261500-
SOUTHEAST KANSAS

CITY           SKY/WX    TMP DP  RH WIND       PRES   REMARKS
CHANUTE        CLOUDY    69  66  90 N6        30.03S
COFFEYVILLE    CLOUDY    68  67  96 N7        30.02R
HUTCHINSON     CLOUDY    55  55 100 N13       30.11R FOG
MEDICINE LODGE   N/A     55  52  89 N12       30.09S
NEWTON         CLOUDY    55  54  96 N13       30.09F FOG
PARSONS        LGT RAIN  68  65  90 N5        30.04R FOG
WICHITA INTL   CLOUDY    57  57 100 N13       30.08R
WICHITA JABRA  CLOUDY    57  57 100 N10       30.08R
WICHITA MCCONL CLOUDY    59  55  88 NE9       30.08R
WINFIELD       CLOUDY    63  62  97 N13       30.06S
$$

KSZ007>012-019>026-033>040-048>060-102>105-261500-
NORTHEAST KANSAS

CITY           SKY/WX    TMP DP  RH WIND       PRES   REMARKS
CONCORDIA      CLOUDY    52  51  97 N13       30.11S
EMPORIA        CLOUDY    60  59  96 NW9       30.07R
LAWRENCE       LGT RAIN  67  67 100 W7        30.03R FOG
MANHATTAN      CLOUDY    57  55  93 VRB5      30.09S
MARYSVILLE     CLOUDY    54  54 100 NW12      30.10R
OLATHE IND     PTSUNNY   66  65  96 W6        30.04R
OLATHE EXE     CLOUDY    65  65 100 NW3       30.03R
SALINA         CLOUDY    55  53  93 N13       30.12R FOG
TOPEKA BILLARD CLOUDY    62  62 100 NW9       30.06R
TOPEKA FORBES  CLOUDY    62  62 100 NW12      30.06R FOG
$$




USA.gov is the U.S. government's official web portal to all federal, state and local government web resources and services.